Tiempo atmosférico en la estación meteorológica de Silleda, Pontevedra (422 m.)



Fecha
DESCASC
Temp. máxima en grados centígrados (hora)
DESCASC
Temp. mínima en grados centígrados (hora)
DESCASC
Temp. media en grados centígrados
DESCASC
Racha de viento máxima en m/sg (hora)
DESCASC
Velocidad máxima media en intervalos de 10 minutos(hora)
DESCASC
Precipitaciones diarias en mm
DESCASC
Precipitaciones de 00:00 a 06:00 en mm
DESCASC
Precipitaciones de 06:00 a 12:00 en mm
DESCASC
Precipitaciones de 12:00 a 18:00 en mm
DESCASC
Precipitaciones de 18:00 a 24:00 en mm
DESCASC
24-01-2021 10.3 (13:40) 6.5 (06:10) 8.4 10.83 (13:20) 5.83 (00:10) 3 1.4 0 1 0.6
23-01-2021 12.5 (15:40) 6.9 (02:30) 9.7 17.5 (16:30) 8.61 (16:10) 18.8 2.4 6.2 9.2 1
22-01-2021 10.1 (14:10) 5.3 (09:10) 7.7 21.39 (02:30) 9.17 (02:10) 12.4 9.8 1.2 0.4 1
21-01-2021 13.1 (13:10) 7.5 (00:00) 10.3 16.94 (10:10) 7.5 (12:40) 36.2 0.8 15.2 0.8 19.4
20-01-2021 10.6 (14:20) 6.5 (00:00) 8.6 20 (00:10) 9.72 (00:10) 39.6 11 18.2 8 2.4
19-01-2021 11.8 (15:50) 6 (00:00) 8.9 20.28 (23:20) 10.28 (23:20) 0.4 0 0 0 0.4
18-01-2021 16.3 (14:20) 2.9 (00:00) 9.6 7.78 (07:50) 5.28 (08:30) 0 0 0 0 0
17-01-2021 11.5 (16:30) 1 (00:00) 6.3 5.83 (02:00) 3.89 (10:40) 0 0 0 0 0
16-01-2021 14.5 (14:50) -1.3 (-00:0) 6.6 7.22 (06:00) 5 (06:00) 0 0 0 0 0
15-01-2021 12.2 (16:40) 0.7 (00:00) 6.4 6.94 (23:59) 4.17 (10:30) 0 0 0 0 0
14-01-2021 10.1 (14:10) 2.2 (00:00) 6.2 5.28 (09:30) 3.61 (08:30) 0 0 0 0 0
13-01-2021 9.5 (13:20) -0.6 (-00:0) 4.4 6.11 (00:20) 3.89 (00:10) 0 0 0 0 0
12-01-2021 9.8 (12:20) -1 (-00:0) 4.4 5.83 (03:10) 4.44 (23:20) 0 0 0 0 0
11-01-2021 10.7 (15:50) -0.4 (00:00) 5.1 8.89 (02:30) 2.78 (02:40) 0 0 0 0 0
10-01-2021 8.3 (16:00) 2.1 (23:59) 5.2 10.28 (14:00) 3.61 (14:00) 0 0 0 0 0
09-01-2021 6.3 (14:30) -2.5 (-00:0) 1.9 11.11 (15:00) 3.33 (13:40) 0 0 0 0 0
08-01-2021 8 (15:30) -3 (-00:0) 2.5 8.33 (15:40) 2.78 (15:00) 0.2 0 0.2 0 0
07-01-2021 6.7 (17:10) -2.8 (-00:0) 1.9 4.72 (16:10) 2.78 (12:00) 0 0 0 0 0
06-01-2021 8.3 (16:00) -0.8 (-00:0) 3.8 6.94 (16:40) 3.06 (05:40) 0 0 0 0 0
05-01-2021 7 (12:50) -2.8 (-00:0) 2.1 3.89 (09:40) 2.78 (03:40) 0.2 0 0.2 0 0
04-01-2021 7.2 (16:20) -1.2 (-00:0) 3 5.56 (15:50) 1.94 (23:30) 2 1 1 0 0
03-01-2021 7.2 (13:10) 1.3 (00:00) 4.2 7.22 (14:20) 3.89 (14:20) 2.6 0.2 0.6 1.6 0.2
02-01-2021 7.3 (16:30) 1.3 (00:00) 4.3 6.94 (17:40) 2.22 (17:40) 1.8 0.2 0.6 1 0
01-01-2021 6 (12:40) 0.9 (00:00) 3.4 7.78 (13:20) 3.89 (13:20) 10.2 2 2.6 3 2.6
31-12-2020 7.9 (10:20) 2.9 (00:00) 5.4 12.22 (07:40) 5.28 (07:50) 18.2 2.4 6.2 3 6.6
30-12-2020 8.7 (16:50) 1.5 (00:00) 5.1 6.39 (14:30) 2.78 (14:20) 2.2 0.6 0 0.4 1.2
29-12-2020 6.3 (12:10) 1.8 (00:00) 4.1 9.72 (02:30) 4.72 (02:30) 10 1.4 2.4 4.4 1.8
28-12-2020 8.9 (15:50) 3.7 (00:00) 6.3 17.78 (00:20) 9.17 (00:20) 10 4.8 1 2 2.2
27-12-2020 9.6 (20:20) 1.2 (00:00) 5.4 18.61 (18:00) 9.17 (20:20) 12.7 0 0 1.3 11.4
26-12-2020 11.1 (16:30) 0.2 (00:00) 5.7 5.28 (14:00) 3.33 (21:10) 0 0 0 0 0

Gráficas

Temp. máximas Temp. mínimas Temp. medias Precipitaciones Rachas de viento máximas Velocidades máximas media en intervalos de 10 minutos

Datos horarios

Fecha y hora oficial Temperatura (ºC) Velocidad del viento (km/h) Dirección del viento Racha (km/h) Dirección de racha Precipitación (mm) Presión (hPa) Tendencia (hPa) Humedad (%)
2021-01-24 23:00:00 7.9 13 Sudeste 22 Sudeste 0.4 -- -- 97
2021-01-24 22:00:00 8.5 6 Sur 16 Sur 0 -- -- 91
2021-01-24 21:00:00 8.4 7 Sur 17 Sur 0 -- -- 92
2021-01-24 20:00:00 8.5 7 Sudoeste 29 Oeste 0 -- -- 93
2021-01-24 19:00:00 8.8 6 Sudoeste 26 Oeste 0 -- -- 89
2021-01-24 18:00:00 9.3 11 Oeste 29 Oeste 0 -- -- 89
2021-01-24 17:00:00 9.6 4 Oeste 35 Oeste 0 -- -- 87
2021-01-24 16:00:00 9.7 11 Noroeste 32 Noroeste 0 -- -- 86
2021-01-24 15:00:00 10 6 Oeste 21 Oeste 0.4 -- -- 89
2021-01-24 14:00:00 8.9 8 Noroeste 39 Oeste 0.6 -- -- 93
2021-01-24 13:00:00 10.2 12 Oeste 33 Noroeste 0 -- -- 87
2021-01-24 12:00:00 9.4 9 Oeste 21 Oeste 0 -- -- 90
2021-01-24 11:00:00 10 6 Sudoeste 20 Oeste 0 -- -- 86
2021-01-24 10:00:00 7.9 4 Oeste 22 Oeste 0 -- -- 90
2021-01-24 09:00:00 6.7 4 Oeste 15 Oeste 0 -- -- 95
2021-01-24 08:00:00 6.8 6 Oeste 15 Noroeste 0 -- -- 96
2021-01-24 07:00:00 6.6 6 Noroeste 16 Noroeste 0 -- -- 95
2021-01-24 06:00:00 6.6 4 Noroeste 18 Noroeste 0.2 -- -- 94
2021-01-24 05:00:00 7.2 8 Noroeste 18 Noroeste 0 -- -- 95
2021-01-24 04:00:00 7.5 7 Noroeste 18 Noroeste 0 -- -- 95
2021-01-24 03:00:00 7.8 10 Noroeste 21 Noroeste 0 -- -- 95
2021-01-24 02:00:00 8.2 11 Noroeste 34 Noroeste 0 -- -- 95
2021-01-24 01:00:00 8.5 16 Noroeste 35 Noroeste 1.2 -- -- 98
2021-01-24 00:00:00 8.9 26 Noroeste 61 Oeste 0.6 -- -- 97
2021-01-23 23:00:00 8.9 22 Noroeste 46 Oeste 0.2 -- -- 94
2021-01-23 22:00:00 9.7 22 Noroeste 55 Oeste 0 -- -- 87
2021-01-23 21:00:00 9.6 19 Noroeste 49 Oeste 0 -- -- 88
2021-01-23 20:00:00 9.4 22 Noroeste 49 Noroeste 0.2 -- -- 92
2021-01-23 19:00:00 10 23 Noroeste 51 Oeste 0 -- -- 89
2021-01-23 18:00:00 10.3 24 Noroeste 47 Oeste 0 -- -- 89
2021-01-23 17:00:00 11 21 Noroeste 63 Oeste 1.8 -- -- 89
2021-01-23 16:00:00 12.3 25 Oeste 58 Oeste 1.6 -- -- 97
2021-01-23 15:00:00 12.4 22 Noroeste 53 Noroeste 1.4 -- -- 97
2021-01-23 14:00:00 11.7 14 Oeste 40 Oeste 3.6 -- -- 98
2021-01-23 13:00:00 10.2 19 Oeste 57 Oeste 0.8 -- -- 96
2021-01-23 12:00:00 9.6 23 Sudoeste 53 Oeste 1.2 -- -- 94
2021-01-23 11:00:00 9.5 17 Sudoeste 38 Oeste 2 -- -- 94
2021-01-23 10:00:00 8.6 16 Oeste 51 Sudoeste 0.8 -- -- 95
2021-01-23 09:00:00 8.1 17 Oeste 51 Sudoeste 1.2 -- -- 95
2021-01-23 08:00:00 7.7 10 Oeste 27 Noroeste 1 -- -- 95
2021-01-23 07:00:00 8.1 11 Oeste 55 Oeste 0 -- -- 86
2021-01-23 06:00:00 7.7 15 Oeste 46 Oeste 0.4 -- -- 92
2021-01-23 05:00:00 7.6 17 Oeste 42 Oeste 0 -- -- 91
2021-01-23 04:00:00 7.2 21 Oeste 52 Oeste 0.4 -- -- 92
2021-01-23 03:00:00 7.1 15 Oeste 36 Oeste 1 -- -- 93
2021-01-23 02:00:00 7.4 14 Oeste 39 Oeste 0.4 -- -- 93
2021-01-23 01:00:00 7.1 14 Oeste 40 Oeste 0.2 -- -- 92
2021-01-23 00:00:00 7.4 18 Oeste 39 Noroeste 0 -- -- 89
2021-01-22 23:00:00 7.4 12 Oeste 39 Oeste 0 -- -- 90
2021-01-22 22:00:00 7.2 14 Oeste 31 Oeste 0 -- -- 92
2021-01-22 21:00:00 6.7 12 Noroeste 39 Oeste 0.4 -- -- 93
2021-01-22 20:00:00 6.7 15 Noroeste 42 Oeste 0.6 -- -- 93
2021-01-22 19:00:00 7 13 Oeste 33 Noroeste 0 -- -- 90
2021-01-22 18:00:00 7.2 12 Oeste 32 Oeste 0 -- -- 89
2021-01-22 17:00:00 7.6 9 Oeste 26 Oeste 0.4 -- -- 93
2021-01-22 16:00:00 7.8 10 Oeste 32 Oeste 0 -- -- 86
2021-01-22 15:00:00 10 14 Oeste 36 Oeste 0 -- -- 71
2021-01-22 14:00:00 9.7 12 Noroeste 39 Oeste 0 -- -- 79
2021-01-22 13:00:00 9.1 12 Oeste 29 Oeste 0 -- -- 76
2021-01-22 12:00:00 8.7 12 Noroeste 24 Oeste 0 -- -- 81
2021-01-22 11:00:00 7.1 9 Noroeste 17 Oeste 0 -- -- 89
2021-01-22 10:00:00 5.7 10 Noroeste 21 Oeste 0 -- -- 96
2021-01-22 09:00:00 5.4 11 Noroeste 33 Noroeste 0.8 -- -- 97
2021-01-22 08:00:00 6 16 Noroeste 32 Oeste 0.4 -- -- 93
2021-01-22 07:00:00 6.1 15 Noroeste 36 Noroeste 0 -- -- 96
2021-01-22 06:00:00 6.1 17 Noroeste 47 Noroeste 2 -- -- 97
2021-01-22 05:00:00 6.4 15 Noroeste 51 Oeste 3.6 -- -- 97
2021-01-22 04:00:00 7.1 22 Oeste 53 Oeste 0.2 -- -- 91
2021-01-22 03:00:00 6.7 21 Noroeste 77 Oeste 0.8 -- -- 89
2021-01-22 02:00:00 7.5 32 Oeste 73 Oeste 2 -- -- 91
2021-01-22 01:00:00 7.6 17 Oeste 39 Oeste 1.2 -- -- 99
2021-01-22 00:00:00 7.5 16 Noroeste 36 Noroeste 9.4 -- -- 98
2021-01-21 23:00:00 8.3 13 Oeste 32 Sudoeste 4 -- -- 96
2021-01-21 22:00:00 8.1 11 Oeste 41 Sudoeste 3.4 -- -- 95
2021-01-21 21:00:00 8.5 17 Sudoeste 37 Sudoeste 2 -- -- 92
2021-01-21 20:00:00 9 17 Sudoeste 34 Sudoeste 0.6 -- -- 90
2021-01-21 19:00:00 10 13 Sudoeste 40 Oeste 0 -- -- 85
2021-01-21 18:00:00 10.3 11 Oeste 34 Oeste 0 -- -- 85
2021-01-21 17:00:00 10.8 17 Oeste 46 Oeste 0 -- -- 81
2021-01-21 16:00:00 11.1 21 Oeste 48 Oeste 0.2 -- -- 80
2021-01-21 15:00:00 11.1 19 Oeste 47 Noroeste 0 -- -- 84
2021-01-21 14:00:00 12.4 17 Oeste 53 Oeste 0 -- -- 77
2021-01-21 13:00:00 12.6 23 Oeste 49 Oeste 0.6 -- -- 83
2021-01-21 12:00:00 11.1 18 Oeste 56 Oeste 0.8 -- -- 93
2021-01-21 11:00:00 11 22 Sudoeste 61 Sudoeste 0.4 -- -- 94
2021-01-21 10:00:00 9.6 18 Sudoeste 58 Sudoeste 5.2 -- -- 96
2021-01-21 09:00:00 8.8 17 Sudoeste 42 Sudoeste 7.2 -- -- 97
2021-01-21 08:00:00 9.4 17 Sudoeste 48 Sudoeste 1.4 -- -- 95
2021-01-21 07:00:00 9.2 20 Sudoeste 48 Sudoeste 0.2 -- -- 96
2021-01-21 06:00:00 9 14 Sudoeste 41 Oeste 0 -- -- 94
2021-01-21 05:00:00 9 9 Sudoeste 26 Sudoeste 0 -- -- 96
2021-01-21 04:00:00 8.9 12 Oeste 26 Oeste 0 -- -- 95
2021-01-21 03:00:00 8.8 14 Oeste 35 Oeste 0.2 -- -- 94
2021-01-21 02:00:00 8.9 14 Oeste 32 Oeste 0 -- -- 96
2021-01-21 01:00:00 9.1 12 Noroeste 35 Oeste 0.6 -- -- 98
2021-01-21 00:00:00 9.2 15 Noroeste 41 Oeste 0 -- -- 97
2021-01-20 23:00:00 9.2 13 Noroeste 35 Oeste 1 -- -- 97
2021-01-20 22:00:00 9.4 16 Oeste 37 Oeste 0.4 -- -- 97
2021-01-20 21:00:00 9.4 14 Noroeste 40 Oeste 0.4 -- -- 95
2021-01-20 20:00:00 9.7 13 Noroeste 47 Oeste 0.4 -- -- 95
2021-01-20 19:00:00 9.8 17 Oeste 48 Oeste 0.2 -- -- 92
2021-01-20 18:00:00 9.7 17 Oeste 54 Noroeste 0.4 -- -- 95
2021-01-20 17:00:00 10.1 17 Oeste 51 Oeste 0.8 -- -- 95
2021-01-20 16:00:00 10.6 22 Oeste 55 Oeste 0.4 -- -- 93
2021-01-20 15:00:00 10.4 24 Oeste 67 Oeste 1.4 -- -- 94
2021-01-20 14:00:00 10.5 25 Oeste 59 Oeste 2.4 -- -- 92
2021-01-20 13:00:00 10.2 19 Oeste 59 Oeste 2.6 -- -- 95
2021-01-20 12:00:00 9.9 21 Oeste 48 Oeste 5.4 -- -- 96
2021-01-20 11:00:00 9.8 18 Oeste 46 Sudoeste 7 -- -- 96
2021-01-20 10:00:00 9.2 14 Sudoeste 48 Sur 4 -- -- 94
2021-01-20 09:00:00 9.3 18 Sur 48 Sur 0.4 -- -- 92
2021-01-20 08:00:00 9.7 19 Sur 45 Sur 0.4 -- -- 88
2021-01-20 07:00:00 9.2 23 Sudoeste 42 Sudoeste 1 -- -- 90
2021-01-20 06:00:00 7.9 19 Sur 44 Sur 1.6 -- -- 94
2021-01-20 05:00:00 8.4 26 Sur 56 Sur 1.8 -- -- 90
2021-01-20 04:00:00 8 28 Sur 53 Sudeste 2.2 -- -- 91
2021-01-20 03:00:00 6.8 24 Sudeste 50 Sur 3 -- -- 94
2021-01-20 02:00:00 7.3 29 Sur 52 Sudeste 1.8 -- -- 91
2021-01-20 01:00:00 7.8 22 Sur 72 Sudeste 0.6 -- -- 87
2021-01-20 00:00:00 8.3 36 Sur 73 Sur 0.2 -- -- 83
2021-01-19 23:00:00 8.7 25 Sur 63 Sur 0 -- -- 79
2021-01-19 22:00:00 9.3 26 Sur 54 Sur 0 -- -- 73
2021-01-19 21:00:00 9 27 Sur 63 Sur 0.2 -- -- 74
2021-01-19 20:00:00 9.8 27 Sur 51 Sur 0 -- -- 70
2021-01-19 19:00:00 9.2 12 Sur 40 Sur 0 -- -- 73
2021-01-19 18:00:00 9.9 15 Sudoeste 39 Sudoeste 0 -- -- 72
2021-01-19 17:00:00 10.3 13 Sur 40 Sudoeste 0 -- -- 69
2021-01-19 16:00:00 11.7 11 Sudoeste 51 Sur 0 -- -- 61
2021-01-19 15:00:00 10.9 24 Sur 56 Sudoeste 0 -- -- 64
2021-01-19 14:00:00 10.9 26 Sur 61 Sur 0 -- -- 63
2021-01-19 13:00:00 10.3 11 Sudoeste 39 Sudoeste 0 -- -- 55
2021-01-19 12:00:00 10.7 12 Sudoeste 36 Sur 0 -- -- 50
2021-01-19 11:00:00 8.4 8 Este 20 Sudeste 0 -- -- 62
2021-01-19 10:00:00 7.3 10 Sudeste 19 Este 0 -- -- 67
2021-01-19 09:00:00 7.4 10 Sudeste 23 Sudeste 0 -- -- 67
2021-01-19 08:00:00 7.7 14 Sur 25 Sur 0 -- -- 65
2021-01-19 07:00:00 6.7 10 Este 20 Este 0 -- -- 72
2021-01-19 06:00:00 7.5 13 Sudeste 23 Sudeste 0 -- -- 68
2021-01-19 05:00:00 6.7 14 Sudeste 25 Sudeste 0 -- -- 71
2021-01-19 04:00:00 7 14 Sudeste 21 Sudeste 0 -- -- 70
2021-01-19 03:00:00 7 14 Sudeste 27 Sudeste 0 -- -- 75
2021-01-19 02:00:00 6.6 9 Sudeste 26 Sudeste 0 -- -- 82
2021-01-19 01:00:00 7.6 13 Sudeste 22 Sudeste 0 -- -- 74
2021-01-19 00:00:00 6.8 11 Este 19 Sudeste 0 -- -- 80
2021-01-18 23:00:00 7 13 Sudeste 18 Sudeste 0 -- -- 78
2021-01-18 22:00:00 7.4 0 Calma 8 Este 0 -- -- 80
2021-01-18 21:00:00 8 6 Sudeste 12 Este 0 -- -- 82
2021-01-18 20:00:00 9 0 Calma 8 Sudeste 0 -- -- 82
2021-01-18 19:00:00 10 0 Calma 4 Noroeste 0 -- -- 82
2021-01-18 18:00:00 13.7 2 Noroeste 8 Noroeste 0 -- -- 67
2021-01-18 17:00:00 15.2 5 Noroeste 12 Noroeste 0 -- -- 62
2021-01-18 16:00:00 15.2 6 Noroeste 14 Noroeste 0 -- -- 61
2021-01-18 15:00:00 15.1 9 Noroeste 15 Noroeste 0 -- -- 64
2021-01-18 14:00:00 15.7 5 Sudeste 15 Sudeste 0 -- -- 56
2021-01-18 13:00:00 14.2 9 Sudeste 18 Sudeste 0 -- -- 60
2021-01-18 12:00:00 12.6 11 Sudeste 24 Sudeste 0 -- -- 68
2021-01-18 11:00:00 9.4 13 Sudeste 24 Sudeste 0 -- -- 79
2021-01-18 10:00:00 6.4 16 Sudeste 23 Este 0 -- -- 88
2021-01-18 09:00:00 4.4 14 Sudeste 28 Sudeste 0 -- -- 98
2021-01-18 08:00:00 3.7 17 Sudeste 28 Este 0 -- -- 100
2021-01-18 07:00:00 3.3 12 Sudeste 19 Este 0 -- -- 100
2021-01-18 06:00:00 3.5 5 Sudeste 15 Sudeste 0 -- -- 100
2021-01-18 05:00:00 4.4 7 Sudeste 20 Sudeste 0 -- -- 100
2021-01-18 04:00:00 5.6 9 Sudeste 16 Sudeste 0 -- -- 99
2021-01-18 03:00:00 6.3 9 Sudeste 14 Sudeste 0 -- -- 98
2021-01-18 02:00:00 7 7 Sudeste 14 Sudeste 0 -- -- 97
2021-01-18 01:00:00 7.2 4 Sudeste 15 Sudeste 0 -- -- 97
2021-01-18 00:00:00 7.8 6 Sudeste 17 Sudeste 0 -- -- 94
2021-01-17 23:00:00 8.3 5 Sudeste 9 Sudeste 0 -- -- 92
2021-01-17 22:00:00 9 3 Sudeste 10 Este 0 -- -- 90
2021-01-17 21:00:00 9.3 4 Este 9 Sudeste 0 -- -- 89
2021-01-17 20:00:00 9.6 2 Este 4 Este 0 -- -- 88
2021-01-17 19:00:00 9.6 3 Sudeste 8 Este 0 -- -- 88
2021-01-17 18:00:00 10.2 3 Este 8 Sudeste 0 -- -- 85
2021-01-17 17:00:00 10.8 5 Sur 10 Sudeste 0 -- -- 83
2021-01-17 16:00:00 10.9 7 Sudeste 14 Sudeste 0 -- -- 83
2021-01-17 15:00:00 10.3 3 Sur 10 Sudeste 0 -- -- 85
2021-01-17 14:00:00 9.3 4 Sudeste 11 Sudeste 0 -- -- 88
2021-01-17 13:00:00 8 6 Sudeste 15 Sudeste 0 -- -- 89
2021-01-17 12:00:00 6.6 11 Sudeste 17 Sudeste 0 -- -- 94
2021-01-17 11:00:00 4.6 13 Sudeste 20 Sudeste 0 -- -- 95
2021-01-17 10:00:00 4.1 12 Sudeste 18 Sudeste 0 -- -- 96
2021-01-17 09:00:00 3.5 7 Este 13 Este 0 -- -- 88
2021-01-17 08:00:00 2.2 6 Este 12 Este 0 -- -- 90
2021-01-17 07:00:00 2.5 0 Calma 4 Este 0 -- -- 85
2021-01-17 06:00:00 1.4 0 Calma 3 Noroeste 0 -- -- 90
2021-01-17 05:00:00 1 0 Calma 4 Noroeste 0 -- -- 90
2021-01-17 04:00:00 3.7 4 Este 14 Este 0 -- -- 80
2021-01-17 03:00:00 3.4 9 Este 18 Este 0 -- -- 79
2021-01-17 02:00:00 4 13 Este 21 Este 0 -- -- 77
2021-01-17 01:00:00 3 8 Este 17 Sudeste 0 -- -- 72
2021-01-17 00:00:00 3.2 8 Este 12 Este 0 -- -- 65
2021-01-16 23:00:00 3.3 6 Este 12 Este 0 -- -- 60
2021-01-16 22:00:00 4.4 6 Este 9 Este 0 -- -- 56
2021-01-16 21:00:00 6.1 3 Nordeste 6 Este 0 -- -- 51
2021-01-16 20:00:00 7 0 Calma 2 Este 0 -- -- 56
2021-01-16 19:00:00 7.4 0 Calma 2 Sur 0 -- -- 64
2021-01-16 18:00:00 10.7 2 Noroeste 6 Noroeste 0 -- -- 49
2021-01-16 17:00:00 12.9 4 Noroeste 7 Noroeste 0 -- -- 41
2021-01-16 16:00:00 12.9 4 Noroeste 13 Noroeste 0 -- -- 51
2021-01-16 15:00:00 14 6 Noroeste 9 Noroeste 0 -- -- 48
2021-01-16 14:00:00 12.6 6 Sudeste 14 Sudeste 0 -- -- 42
2021-01-16 13:00:00 11 9 Sudeste 18 Sudeste 0 -- -- 40
2021-01-16 12:00:00 8.3 10 Sudeste 17 Sudeste 0 -- -- 50
2021-01-16 11:00:00 6.5 9 Este 14 Este 0 -- -- 60
2021-01-16 10:00:00 2.2 9 Este 11 Este 0 -- -- 70
2021-01-16 09:00:00 -1 6 Este 13 Este 0 -- -- 75
2021-01-16 08:00:00 0.1 12 Este 15 Este 0 -- -- 68
2021-01-16 07:00:00 -1.3 3 Sudeste 23 Sudeste 0 -- -- 86
2021-01-16 06:00:00 1.8 18 Sudeste 26 Sudeste 0 -- -- 80
2021-01-16 05:00:00 0.6 6 Sudeste 9 Este 0 -- -- 86
2021-01-16 04:00:00 0.7 5 Este 14 Este 0 -- -- 89
2021-01-16 03:00:00 0.9 9 Este 22 Este 0 -- -- 93
2021-01-16 02:00:00 1 14 Sudeste 21 Este 0 -- -- 96
2021-01-16 01:00:00 0.5 13 Este 25 Sudeste 0 -- -- 97
2021-01-16 00:00:00 0.7 15 Sudeste 25 Este 0 -- -- 96
2021-01-15 23:00:00 1.3 8 Sudeste 18 Este 0 -- -- 96
2021-01-15 22:00:00 2.5 11 Este 17 Este 0 -- -- 93
2021-01-15 21:00:00 4.6 10 Sudeste 13 Este 0 -- -- 90
2021-01-15 20:00:00 4.7 0 Calma 3 Sudeste 0 -- -- 93
2021-01-15 19:00:00 6.2 0 Calma 3 Noroeste 0 -- -- 89
2021-01-15 18:00:00 9.5 2 Noroeste 7 Noroeste 0 -- -- 77
2021-01-15 17:00:00 12 3 Oeste 12 Noroeste 0 -- -- 67
2021-01-15 16:00:00 11.7 5 Noroeste 10 Noroeste 0 -- -- 71
2021-01-15 15:00:00 10.5 5 Noroeste 11 Noroeste 0 -- -- 76
2021-01-15 14:00:00 10 5 Noroeste 10 Oeste 0 -- -- 79
2021-01-15 13:00:00 9.1 3 Oeste 9 Sudeste 0 -- -- 86
2021-01-15 12:00:00 7.6 5 Sudeste 20 Sudeste 0 -- -- 96
2021-01-15 11:00:00 4.1 14 Sudeste 24 Sudeste 0 -- -- 100
2021-01-15 10:00:00 4.7 12 Sudeste 21 Sudeste 0 -- -- 99
2021-01-15 09:00:00 4.7 4 Sudeste 19 Sudeste 0 -- -- 99
2021-01-15 08:00:00 4.5 0 Calma 13 Sudeste 0 -- -- 99
2021-01-15 07:00:00 5.5 9 Sudeste 16 Sudeste 0 -- -- 100
2021-01-15 06:00:00 6 4 Sudeste 14 Sudeste 0 -- -- 100
2021-01-15 05:00:00 6.5 3 Sudeste 13 Sudeste 0 -- -- 100
2021-01-15 04:00:00 7 2 Sudeste 5 Sudeste 0 -- -- 99
2021-01-15 03:00:00 7.4 0 Calma 4 Este 0 -- -- 99
2021-01-15 02:00:00 7.3 0 Calma 5 Sudeste 0 -- -- 99
2021-01-15 01:00:00 7.5 2 Sudeste 3 Sudeste 0 -- -- 99
2021-01-15 00:00:00 7.5 0 Calma 6 Nordeste 0 -- -- 99
2021-01-14 23:00:00 7.6 3 Sudeste 10 Sudeste 0 -- -- 99
2021-01-14 22:00:00 7.8 5 Sudeste 10 Sudeste 0 -- -- 98
2021-01-14 21:00:00 7.8 3 Sur 6 Sudeste 0 -- -- 98
2021-01-14 20:00:00 7.9 2 Este 5 Sudeste 0 -- -- 97
2021-01-14 19:00:00 8.1 0 Calma 4 Sur 0 -- -- 94
2021-01-14 18:00:00 8.5 0 Calma 4 Norte 0 -- -- 92
2021-01-14 17:00:00 9.1 2 Norte 7 Noroeste 0 -- -- 88
2021-01-14 16:00:00 9.4 4 Noroeste 7 Noroeste 0 -- -- 86
2021-01-14 15:00:00 9.2 4 Noroeste 8 Noroeste 0 -- -- 86
2021-01-14 14:00:00 9.4 2 Oeste 6 Nordeste 0 -- -- 83
2021-01-14 13:00:00 8 2 Sudeste 14 Sudeste 0 -- -- 84
2021-01-14 12:00:00 7.4 8 Sudeste 17 Sudeste 0 -- -- 84
2021-01-14 11:00:00 6.6 9 Sudeste 16 Sudeste 0 -- -- 88
2021-01-14 10:00:00 4.5 10 Sudeste 19 Sudeste 0 -- -- 93
2021-01-14 09:00:00 3.8 9 Sudeste 18 Sudeste 0 -- -- 92
2021-01-14 08:00:00 3.5 10 Sudeste 16 Este 0 -- -- 89
2021-01-14 07:00:00 3.5 10 Sudeste 17 Sudeste 0 -- -- 88
2021-01-14 06:00:00 3.6 8 Sudeste 14 Sudeste 0 -- -- 88
2021-01-14 05:00:00 3.5 7 Sudeste 12 Sudeste 0 -- -- 90
2021-01-14 04:00:00 3.5 2 Nordeste 5 Este 0 -- -- 90
2021-01-14 03:00:00 3.4 3 Este 7 Este 0 -- -- 91
2021-01-14 02:00:00 2.9 4 Este 7 Este 0 -- -- 93
2021-01-14 01:00:00 2.5 4 Este 9 Nordeste 0 -- -- 93
2021-01-14 00:00:00 2.2 6 Este 8 Este 0 -- -- 94
2021-01-13 23:00:00 2.8 0 Calma 2 Este 0 -- -- 93
2021-01-13 22:00:00 2.4 0 Calma 4 Nordeste 0 -- -- 93
2021-01-13 21:00:00 3.4 2 Nordeste 6 Noroeste 0 -- -- 90
2021-01-13 20:00:00 4.5 0 Calma 3 Este 0 -- -- 86
2021-01-13 19:00:00 4.5 0 Calma 3 Noroeste 0 -- -- 85
2021-01-13 18:00:00 7 4 Noroeste 14 Noroeste 0 -- -- 77
2021-01-13 17:00:00 8.8 6 Noroeste 13 Noroeste 0 -- -- 67
2021-01-13 16:00:00 9.1 7 Noroeste 14 Noroeste 0 -- -- 65
2021-01-13 15:00:00 8.6 8 Noroeste 16 Noroeste 0 -- -- 65
2021-01-13 14:00:00 9.1 5 Noroeste 9 Noroeste 0 -- -- 64
2021-01-13 13:00:00 8.6 3 Oeste 6 Oeste 0 -- -- 68
2021-01-13 12:00:00 7.4 4 Noroeste 10 Este 0 -- -- 69
2021-01-13 11:00:00 6.9 3 Sur 16 Este 0 -- -- 65
2021-01-13 10:00:00 2.6 5 Este 17 Este 0 -- -- 76
2021-01-13 09:00:00 0.3 12 Este 15 Sudeste 0 -- -- 84
2021-01-13 08:00:00 0.4 7 Sudeste 10 Sudeste 0 -- -- 89
2021-01-13 07:00:00 -0.3 0 Calma 6 Nordeste 0 -- -- 91
2021-01-13 06:00:00 0.1 0 Calma 3 Este 0 -- -- 93
2021-01-13 05:00:00 0.6 0 Calma 12 Este 0 -- -- 89
2021-01-13 04:00:00 1.5 7 Este 13 Este 0 -- -- 86
2021-01-13 03:00:00 1 9 Este 16 Este 0 -- -- 89
2021-01-13 02:00:00 2.1 9 Sudeste 16 Sudeste 0 -- -- 89
2021-01-13 01:00:00 2.6 10 Sudeste 22 Sudeste 0 -- -- 90
2021-01-13 00:00:00 0.9 11 Este 20 Sudeste 0 -- -- 93
2021-01-12 23:00:00 1.9 12 Sudeste 15 Este 0 -- -- 93
2021-01-12 22:00:00 1.6 4 Este 11 Este 0 -- -- 92
2021-01-12 21:00:00 2.7 7 Este 10 Nordeste 0 -- -- 89
2021-01-12 20:00:00 4.1 0 Calma 2 Este 0 -- -- 85
2021-01-12 19:00:00 4.5 0 Calma 3 Nordeste 0 -- -- 84
2021-01-12 18:00:00 7.3 3 Noroeste 10 Noroeste 0 -- -- 74
2021-01-12 17:00:00 9 5 Noroeste 13 Noroeste 0 -- -- 67
2021-01-12 16:00:00 9.2 7 Noroeste 14 Noroeste 0 -- -- 66
2021-01-12 15:00:00 9 8 Noroeste 14 Noroeste 0 -- -- 67
2021-01-12 14:00:00 9 7 Noroeste 11 Noroeste 0 -- -- 65
2021-01-12 13:00:00 8.6 5 Noroeste 8 Noroeste 0 -- -- 61
2021-01-12 12:00:00 8.6 4 Este 16 Este 0 -- -- 56
2021-01-12 11:00:00 5.5 9 Sudeste 15 Sudeste 0 -- -- 62
2021-01-12 10:00:00 2.6 10 Este 17 Este 0 -- -- 71
2021-01-12 09:00:00 0.9 10 Este 17 Este 0 -- -- 77
2021-01-12 08:00:00 0.9 10 Este 21 Sudeste 0 -- -- 77
2021-01-12 07:00:00 0.7 9 Este 19 Sudeste 0 -- -- 79
2021-01-12 06:00:00 0.6 7 Sudeste 18 Este 0 -- -- 79
2021-01-12 05:00:00 0.9 10 Sudeste 19 Sudeste 0 -- -- 79
2021-01-12 04:00:00 -0.2 5 Sudeste 21 Este 0 -- -- 83
2021-01-12 03:00:00 0.7 12 Sudeste 19 Sudeste 0 -- -- 84
2021-01-12 02:00:00 -0.7 10 Sudeste 18 Sudeste 0 -- -- 89
2021-01-12 01:00:00 1.6 3 Sudeste 10 Sudeste 0 -- -- 81
2021-01-12 00:00:00 1 3 Sudeste 14 Este 0 -- -- 84
2021-01-11 23:00:00 2.5 7 Sudeste 10 Sudeste 0 -- -- 79
2021-01-11 22:00:00 2.3 6 Sudeste 10 Sudeste 0 -- -- 79
2021-01-11 21:00:00 2.5 0 Calma 5 Este 0 -- -- 79
2021-01-11 20:00:00 3.4 2 Este 8 Este 0 -- -- 75
2021-01-11 19:00:00 4.7 4 Este 12 Nordeste 0 -- -- 68
2021-01-11 18:00:00 7.6 5 Este 15 Este 0 -- -- 58
2021-01-11 17:00:00 9.7 7 Este 20 Nordeste 0 -- -- 51
2021-01-11 16:00:00 10.5 7 Este 19 Este 0 -- -- 50
2021-01-11 15:00:00 9.9 7 Nordeste 19 Nordeste 0 -- -- 54
2021-01-11 14:00:00 9.2 6 Nordeste 22 Este 0 -- -- 54
2021-01-11 13:00:00 8.6 6 Nordeste 24 Este 0 -- -- 57
2021-01-11 12:00:00 8.2 4 Nordeste 24 Este 0 -- -- 61
2021-01-11 11:00:00 6.7 4 Nordeste 18 Nordeste 0 -- -- 67
2021-01-11 10:00:00 3.8 5 Nordeste 14 Este 0 -- -- 75
2021-01-11 09:00:00 -0.3 0 Calma 10 Nordeste 0 -- -- 89
2021-01-11 08:00:00 0.4 2 Noroeste 10 Norte 0 -- -- 87
2021-01-11 07:00:00 1 2 Este 14 Nordeste 0 -- -- 84
2021-01-11 06:00:00 1.6 3 Nordeste 14 Nordeste 0 -- -- 83
2021-01-11 05:00:00 1.4 3 Norte 14 Nordeste 0 -- -- 84
2021-01-11 04:00:00 2 3 Este 23 Este 0 -- -- 79
2021-01-11 03:00:00 2.9 10 Este 32 Este 0 -- -- 74
2021-01-11 02:00:00 2 5 Este 19 Este 0 -- -- 77
2021-01-11 01:00:00 2 5 Este 18 Este 0 -- -- 75
2021-01-11 00:00:00 2.1 4 Este 33 Este 0 -- -- 74
2021-01-10 23:00:00 2.4 5 Nordeste 19 Este 0 -- -- 75
2021-01-10 22:00:00 2.4 6 Este 20 Este 0 -- -- 78
2021-01-10 21:00:00 2.3 6 Este 18 Este 0 -- -- 77
2021-01-10 20:00:00 3 4 Este 26 Sur 0 -- -- 71
2021-01-10 19:00:00 3.6 8 Sudeste 23 Sudeste 0 -- -- 69
2021-01-10 18:00:00 5.7 5 Este 23 Este 0 -- -- 64
2021-01-10 17:00:00 7.5 9 Este 32 Nordeste 0 -- -- 58
2021-01-10 16:00:00 8.3 10 Este 34 Sudeste 0 -- -- 59
2021-01-10 15:00:00 7.4 10 Este 33 Nordeste 0 -- -- 61
2021-01-10 14:00:00 6.4 13 Este 37 Nordeste 0 -- -- 63
2021-01-10 13:00:00 5.9 10 Nordeste 26 Nordeste 0 -- -- 69
2021-01-10 12:00:00 6.7 8 Este 26 Este 0 -- -- 65
2021-01-10 11:00:00 4.3 5 Este 21 Este 0 -- -- 77
2021-01-10 10:00:00 4.6 6 Nordeste 21 Este 0 -- -- 75
2021-01-10 09:00:00 2.3 3 Este 16 Este 0 -- -- 82
2021-01-10 08:00:00 2.9 5 Este 16 Nordeste 0 -- -- 80
2021-01-10 07:00:00 2.8 3 Nordeste 18 Nordeste 0 -- -- 82
2021-01-10 06:00:00 2.9 4 Este 23 Este 0 -- -- 82
2021-01-10 05:00:00 3.8 7 Este 22 Nordeste 0 -- -- 81
2021-01-10 04:00:00 3.6 5 Este 31 Este 0 -- -- 83
2021-01-10 03:00:00 3.5 6 Nordeste 27 Este 0 -- -- 84
2021-01-10 02:00:00 3.1 8 Nordeste 23 Este 0 -- -- 87
2021-01-10 01:00:00 3.6 6 Este 27 Este 0 -- -- 82
2021-01-10 00:00:00 3.5 10 Nordeste 39 Este 0 -- -- 81
2021-01-09 23:00:00 2.9 8 Nordeste 34 Nordeste 0 -- -- 83
2021-01-09 22:00:00 2.7 7 Nordeste 31 Nordeste 0 -- -- 84
2021-01-09 21:00:00 2.4 3 Norte 24 Nordeste 0 -- -- 85
2021-01-09 20:00:00 2.4 4 Norte 19 Nordeste 0 -- -- 86
2021-01-09 19:00:00 2.5 4 Norte 23 Nordeste 0 -- -- 83
2021-01-09 18:00:00 2.6 6 Nordeste 35 Nordeste 0 -- -- 82
2021-01-09 17:00:00 3.1 8 Nordeste 37 Este 0 -- -- 84
2021-01-09 16:00:00 4.5 6 Nordeste 33 Nordeste 0 -- -- 74
2021-01-09 15:00:00 5 12 Nordeste 40 Este 0 -- -- 70
2021-01-09 14:00:00 4.8 9 Nordeste 35 Este 0 -- -- 71
2021-01-09 13:00:00 5.4 5 Este 28 Nordeste 0 -- -- 70
2021-01-09 12:00:00 5.1 5 Nordeste 21 Nordeste 0 -- -- 71
2021-01-09 11:00:00 5 0 Calma 4 Oeste 0 -- -- 65
2021-01-09 10:00:00 0.9 0 Calma 4 Noroeste 0 -- -- 77
2021-01-09 09:00:00 -2.1 0 Calma 4 Sudoeste 0 -- -- 88
2021-01-09 08:00:00 -1.9 0 Calma 7 Noroeste 0 -- -- 88
2021-01-09 07:00:00 -2.2 0 Calma 5 Oeste 0 -- -- 90
2021-01-09 06:00:00 -2.3 0 Calma 4 Oeste 0 -- -- 94
2021-01-09 05:00:00 -2.4 0 Calma 3 Noroeste 0 -- -- 94
2021-01-09 04:00:00 -2.1 0 Calma 2 Sur 0 -- -- 92
2021-01-09 03:00:00 -1.6 0 Calma 4 Noroeste 0 -- -- 93
2021-01-09 02:00:00 -1.4 0 Calma 5 Oeste 0 -- -- 94
2021-01-09 01:00:00 -1.4 0 Calma 4 Noroeste 0 -- -- 94
2021-01-09 00:00:00 -0.9 2 Noroeste 6 Este 0 -- -- 90
2021-01-08 23:00:00 -0.8 0 Calma 3 Oeste 0 -- -- 88
2021-01-08 22:00:00 -0.2 0 Calma 6 Este 0 -- -- 87
2021-01-08 21:00:00 0.2 0 Calma 6 Noroeste 0 -- -- 83
2021-01-08 20:00:00 1 0 Calma 6 Norte 0 -- -- 79
2021-01-08 19:00:00 1.9 0 Calma 14 Norte 0 -- -- 73
2021-01-08 18:00:00 4.7 5 Nordeste 27 Sudeste 0 -- -- 61
2021-01-08 17:00:00 7.1 6 Nordeste 29 Este 0 -- -- 54
2021-01-08 16:00:00 7.7 7 Nordeste 30 Nordeste 0 -- -- 52
2021-01-08 15:00:00 7.1 10 Este 25 Nordeste 0 -- -- 55
2021-01-08 14:00:00 7 5 Este 17 Nordeste 0 -- -- 56
2021-01-08 13:00:00 5.7 5 Norte 12 Noroeste 0 -- -- 64
2021-01-08 12:00:00 6.4 3 Nordeste 11 Este 0 -- -- 60
2021-01-08 11:00:00 5.3 3 Este 11 Este 0.2 -- -- 62
2021-01-08 10:00:00 1.6 2 Norte 5 Este 0 -- -- 76
2021-01-08 09:00:00 -1.7 0 Calma 4 Noroeste 0 -- -- 87
2021-01-08 08:00:00 -3 0 Calma 9 Sudeste 0 -- -- 93
2021-01-08 07:00:00 -2.3 0 Calma 12 Sudeste 0 -- -- 87
2021-01-08 06:00:00 -1.7 5 Sudeste 12 Sudeste 0 -- -- 89
2021-01-08 05:00:00 -1.5 4 Sudeste 12 Sudeste 0 -- -- 92
2021-01-08 04:00:00 -2.5 0 Calma 4 Noroeste 0 -- -- 96
2021-01-08 03:00:00 -1.4 0 Calma 9 Sudeste 0 -- -- 95
2021-01-08 02:00:00 -1.8 2 Sudeste 9 Sudeste 0 -- -- 98
2021-01-08 01:00:00 -1.2 5 Sudeste 15 Sudeste 0 -- -- 96
2021-01-08 00:00:00 -0.8 4 Sudeste 8 Sudeste 0 -- -- 97
2021-01-07 23:00:00 -0.5 3 Sudoeste 14 Sudeste 0 -- -- 94
2021-01-07 22:00:00 0.1 0 Calma 4 Nordeste 0 -- -- 94
2021-01-07 21:00:00 0.1 0 Calma 5 Este 0 -- -- 94
2021-01-07 20:00:00 1.6 4 Este 14 Este 0 -- -- 90
2021-01-07 19:00:00 2 5 Sudeste 11 Sudeste 0 -- -- 89
2021-01-07 18:00:00 4.4 4 Este 9 Este 0 -- -- 81
2021-01-07 17:00:00 5.9 4 Sudeste 17 Sudeste 0 -- -- 76
2021-01-07 16:00:00 5.8 7 Sudeste 15 Sudeste 0 -- -- 76
2021-01-07 15:00:00 6 5 Este 13 Este 0 -- -- 80
2021-01-07 14:00:00 5.9 5 Sudeste 14 Sur 0 -- -- 78
2021-01-07 13:00:00 4.1 7 Sudeste 16 Sudeste 0 -- -- 80
2021-01-07 12:00:00 2.4 10 Sudeste 17 Este 0 -- -- 83
2021-01-07 11:00:00 1.8 8 Sudeste 15 Sudeste 0 -- -- 82
2021-01-07 10:00:00 0.5 5 Sudeste 8 Este 0 -- -- 89
2021-01-07 09:00:00 -1.7 3 Este 5 Nordeste 0 -- -- 96
2021-01-07 08:00:00 -1.9 3 Sudeste 8 Este 0 -- -- 95
2021-01-07 07:00:00 -1.6 4 Este 14 Sudeste 0 -- -- 90
2021-01-07 06:00:00 -0.6 7 Sudeste 13 Sudeste 0 -- -- 93
2021-01-07 05:00:00 -0.9 3 Sudeste 8 Sudeste 0 -- -- 96
2021-01-07 04:00:00 -0.6 3 Sudeste 6 Sudeste 0 -- -- 95
2021-01-07 03:00:00 -0.5 2 Este 12 Sudeste 0 -- -- 94
2021-01-07 02:00:00 -0.7 6 Sudeste 10 Sudeste 0 -- -- 96
2021-01-07 01:00:00 0.2 6 Sudeste 12 Sudeste 0 -- -- 93
2021-01-07 00:00:00 0 6 Sudeste 12 Sudeste 0 -- -- 94
2021-01-06 23:00:00 0.6 3 Sudeste 11 Sudeste 0 -- -- 93
2021-01-06 22:00:00 0.6 0 Calma 6 Sur 0 -- -- 93
2021-01-06 21:00:00 1.3 3 Sudeste 9 Este 0 -- -- 90
2021-01-06 20:00:00 1.7 5 Sudeste 10 Este 0 -- -- 88
2021-01-06 19:00:00 2.2 4 Sudeste 12 Este 0 -- -- 86
2021-01-06 18:00:00 4.6 5 Este 20 Este 0 -- -- 72
2021-01-06 17:00:00 6.4 5 Este 25 Este 0 -- -- 68
2021-01-06 16:00:00 8.3 3 Nordeste 14 Nordeste 0 -- -- 66
2021-01-06 15:00:00 6.5 4 Nordeste 11 Nordeste 0 -- -- 75
2021-01-06 14:00:00 7.2 3 Nordeste 16 Sudeste 0 -- -- 72
2021-01-06 13:00:00 5.8 4 Este 14 Sudeste 0 -- -- 75
2021-01-06 12:00:00 4 9 Sudeste 17 Este 0 -- -- 78
2021-01-06 11:00:00 2.5 7 Sudeste 14 Sudeste 0 -- -- 80
2021-01-06 10:00:00 1.9 2 Este 16 Este 0 -- -- 85
2021-01-06 09:00:00 -0.6 9 Sudeste 14 Este 0 -- -- 92
2021-01-06 08:00:00 -0.1 10 Sudeste 14 Sudeste 0 -- -- 93
2021-01-06 07:00:00 -0.7 5 Sudeste 12 Sudeste 0 -- -- 97
2021-01-06 06:00:00 -0.7 7 Sudeste 18 Sudeste 0 -- -- 97
2021-01-06 05:00:00 -0.5 9 Sudeste 14 Sudeste 0 -- -- 97
2021-01-06 04:00:00 -0.4 5 Sudeste 13 Este 0 -- -- 97
2021-01-06 03:00:00 -0.1 9 Sudeste 13 Sudeste 0 -- -- 97
2021-01-06 02:00:00 0.2 7 Sudeste 13 Sudeste 0 -- -- 97
2021-01-06 01:00:00 0.3 4 Sudeste 13 Sudeste 0 -- -- 97
2021-01-06 00:00:00 -0.1 2 Sudeste 6 Este 0 -- -- 95
2021-01-05 23:00:00 1 5 Sudeste 7 Sudeste 0 -- -- 96
2021-01-05 22:00:00 1.6 4 Sudeste 8 Sudeste 0 -- -- 94
2021-01-05 21:00:00 2.3 5 Sudeste 9 Sudeste 0 -- -- 92
2021-01-05 20:00:00 2.9 5 Este 8 Este 0 -- -- 94
2021-01-05 19:00:00 2.6 3 Este 5 Nordeste 0 -- -- 92
2021-01-05 18:00:00 4.7 0 Calma 7 Este 0 -- -- 84
2021-01-05 17:00:00 5.8 3 Nordeste 10 Norte 0 -- -- 79
2021-01-05 16:00:00 6.6 2 Sur 7 Sur 0 -- -- 78
2021-01-05 15:00:00 4.9 5 Sudeste 10 Sudeste 0 -- -- 83
2021-01-05 14:00:00 5.7 3 Sur 9 Este 0 -- -- 81
2021-01-05 13:00:00 6.6 3 Este 7 Este 0 -- -- 77
2021-01-05 12:00:00 3.4 4 Este 8 Este 0.2 -- -- 92
2021-01-05 11:00:00 -0.4 4 Este 12 Este 0 -- -- 96
2021-01-05 10:00:00 -1.4 9 Este 14 Este 0 -- -- 96
2021-01-05 09:00:00 -0.7 5 Sudeste 13 Sudeste 0 -- -- 99
2021-01-05 08:00:00 -2.4 3 Este 10 Este 0 -- -- 99
2021-01-05 07:00:00 -2.3 5 Este 12 Sudeste 0 -- -- 97
2021-01-05 06:00:00 -2.1 9 Este 12 Sudeste 0 -- -- 99
2021-01-05 05:00:00 -1.9 8 Este 13 Este 0 -- -- 98
2021-01-05 04:00:00 -2.3 8 Este 13 Nordeste 0 -- -- 100
2021-01-05 03:00:00 -1.9 8 Este 10 Este 0 -- -- 100
2021-01-05 02:00:00 -1.7 6 Este 12 Sudeste 0 -- -- 100
2021-01-05 01:00:00 -1.5 6 Este 12 Este 0 -- -- 100
2021-01-05 00:00:00 -1.2 7 Este 12 Este 0 -- -- 99
2021-01-04 23:00:00 -0.3 0 Calma 6 Este 0 -- -- 99
2021-01-04 22:00:00 0.1 0 Calma 3 Este 0 -- -- 99
2021-01-04 21:00:00 0.3 0 Calma 3 Este 0 -- -- 98
2021-01-04 20:00:00 0.7 0 Calma 3 Nordeste 0 -- -- 97
2021-01-04 19:00:00 1.7 0 Calma 3 Este 0 -- -- 94
2021-01-04 18:00:00 3.8 0 Calma 8 Este 0 -- -- 84
2021-01-04 17:00:00 7 4 Nordeste 11 Nordeste 0 -- -- 71
2021-01-04 16:00:00 5 5 Este 20 Nordeste 0 -- -- 81
2021-01-04 15:00:00 5.3 5 Noroeste 9 Noroeste 0 -- -- 83
2021-01-04 14:00:00 5.2 5 Oeste 10 Norte 0 -- -- 88
2021-01-04 13:00:00 5.6 3 Norte 7 Noroeste 0 -- -- 86
2021-01-04 12:00:00 4.3 0 Calma 9 Noroeste 0 -- -- 88
2021-01-04 11:00:00 6.2 2 Oeste 6 Sudoeste 0 -- -- 85
2021-01-04 10:00:00 0.8 4 Este 5 Este 0 -- -- 100
2021-01-04 09:00:00 1.3 0 Calma 5 Este 0 -- -- 100
2021-01-04 08:00:00 0.7 4 Este 6 Este 0.2 -- -- 100
2021-01-04 07:00:00 1 2 Nordeste 4 Nordeste 0.8 -- -- 100
2021-01-04 06:00:00 0.9 4 Nordeste 6 Nordeste 0.2 -- -- 100
2021-01-04 05:00:00 0.6 2 Noroeste 5 Oeste 0.8 -- -- 98
2021-01-04 04:00:00 1.4 0 Calma 4 Este 0 -- -- 99
2021-01-04 03:00:00 1.2 0 Calma 8 Este 0 -- -- 99
2021-01-04 02:00:00 1.7 0 Calma 3 Norte 0 -- -- 99
2021-01-04 01:00:00 1.3 0 Calma 3 Nordeste 0 -- -- 99
2021-01-04 00:00:00 1.4 0 Calma 2 Nordeste 0 -- -- 99
2021-01-03 23:00:00 1.3 0 Calma 2 Sudoeste 0 -- -- 100
2021-01-03 22:00:00 1.8 0 Calma 3 Este 0 -- -- 99
2021-01-03 21:00:00 2.4 0 Calma 4 Noroeste 0 -- -- 100
2021-01-03 20:00:00 2.8 0 Calma 4 Oeste 0 -- -- 99
2021-01-03 19:00:00 3.2 3 Oeste 11 Oeste 0.2 -- -- 98
2021-01-03 18:00:00 3.9 2 Noroeste 10 Noroeste 0.2 -- -- 97
2021-01-03 17:00:00 4.2 9 Noroeste 22 Noroeste 1 -- -- 96
2021-01-03 16:00:00 4.4 9 Noroeste 22 Oeste 0 -- -- 96
2021-01-03 15:00:00 4.8 8 Noroeste 26 Oeste 0.2 -- -- 92
2021-01-03 14:00:00 5.8 10 Noroeste 22 Noroeste 0.2 -- -- 85
2021-01-03 13:00:00 6.9 10 Noroeste 20 Noroeste 0 -- -- 81
2021-01-03 12:00:00 6.2 4 Noroeste 8 Oeste 0 -- -- 90
2021-01-03 11:00:00 3.2 2 Oeste 5 Oeste 0 -- -- 99
2021-01-03 10:00:00 2.8 2 Noroeste 5 Noroeste 0.4 -- -- 100
2021-01-03 09:00:00 2.1 0 Calma 4 Nordeste 0.2 -- -- 100
2021-01-03 08:00:00 1.7 0 Calma 16 Norte 0 -- -- 100
2021-01-03 07:00:00 2.6 0 Calma 3 Oeste 0 -- -- 100
2021-01-03 06:00:00 1.9 0 Calma 4 Noroeste 0 -- -- 99
2021-01-03 05:00:00 2.3 0 Calma 4 Norte 0.2 -- -- 99
2021-01-03 04:00:00 2.1 0 Calma 2 Nordeste 0 -- -- 98
2021-01-03 03:00:00 2.3 0 Calma 3 Nordeste 0 -- -- 98
2021-01-03 02:00:00 1.8 0 Calma 2 Nordeste 0 -- -- 99
2021-01-03 01:00:00 2.4 0 Calma 3 Nordeste 0 -- -- 98
2021-01-03 00:00:00 2.8 0 Calma 3 Norte 0 -- -- 98
2021-01-02 23:00:00 2.8 0 Calma 3 Noroeste 0 -- -- 98
2021-01-02 22:00:00 2.7 0 Calma 4 Este 0 -- -- 98
2021-01-02 21:00:00 2.3 0 Calma 4 Este 0 -- -- 97
2021-01-02 20:00:00 2.7 0 Calma 4 Este 0 -- -- 98
2021-01-02 19:00:00 2.1 0 Calma 11 Este 0 -- -- 97
2021-01-02 18:00:00 3 8 Sudeste 25 Norte 1 -- -- 94
2021-01-02 17:00:00 6.8 5 Noroeste 9 Noroeste 0 -- -- 82
2021-01-02 16:00:00 6 0 Calma 11 Noroeste 0 -- -- 84
2021-01-02 15:00:00 5.6 2 Norte 9 Noroeste 0 -- -- 90
2021-01-02 14:00:00 5.2 3 Noroeste 8 Noroeste 0 -- -- 91